GW4159 Weather Reports


time (UTC)temp
F
wind
direction
speed
knots
gust
knots
rain 1hr
in
rain 24hr
in
rain mn
in
humidity
%
barometer
mb
20260507203025 65 103 6.1 8.7 0.00 0.02 0.02 81 1013.4
20260507201524 65 127 7.0 9.6 0.00 0.02 0.02 80 1013.4
20260507200019 65 359 6.1 10.4 0.00 0.02 0.02 80 1013.4
20260507194530 65 112 7.0 9.6 0.00 0.02 0.02 80 1013.3
20260507193016 65 119 7.0 9.6 0.00 0.03 0.02 80 1013.2
20260507191516 65 131 7.8 12.2 0.00 0.03 0.02 81 1013.0
20260507190019 65 127 7.8 12.2 0.00 0.03 0.02 81 1013.0
20260507184513 65 122 7.8 11.3 0.00 0.03 0.02 80 1012.9
20260507183014 65 126 8.7 13.0 0.00 0.13 0.02 79 1012.7
20260507181510 65 122 8.7 13.0 0.00 0.13 0.02 75 1012.6
20260507180042 65 118 8.7 11.3 0.00 0.13 0.02 75 1012.5
20260507174540 65 116 8.7 11.3 0.00 0.13 0.02 74 1012.3
20260507173045 65 120 7.0 13.0 0.00 0.13 0.02 74 1012.3
20260507171537 65 124 7.0 10.4 0.00 0.13 0.02 73 1012.3
20260507170037 66 112 8.7 12.2 0.00 0.13 0.02 73 1012.1
20260507164546 65 108 7.8 10.4 0.00 0.13 0.02 70 1012.1
20260507163033 66 116 7.0 10.4 0.00 0.13 0.02 73 1011.9
20260507161547 65 95 7.8 9.6 0.00 0.13 0.02 71 1011.9
20260507160033 66 104 6.1 10.4 0.00 0.13 0.02 71 1011.9
20260507154532 66 94 7.8 10.4 0.00 0.13 0.02 71 1011.9
20260507153035 66 120 7.8 9.6 0.00 0.18 0.02 69 1012.1
20260507151533 66 112 7.0 10.4 0.00 0.18 0.02 70 1012.1
20260507150033 66 95 8.7 10.4 0.00 0.18 0.02 71 1012.1
20260507144534 66 100 7.0 11.3 0.00 0.18 0.02 72 1012.1
20260507143028 66 108 8.7 11.3 0.00 0.18 0.02 71 1012.2
20260507141525 66 120 7.0 9.6 0.00 0.18 0.02 72 1012.2
20260507140025 66 101 7.8 11.3 0.00 0.18 0.02 71 1012.2
20260507134524 66 98 7.8 10.4 0.00 0.18 0.02 70 1012.1
20260507133025 66 86 7.8 9.6 0.00 0.18 0.02 72 1012.3
20260507131521 66 81 7.0 8.7 0.00 0.18 0.02 72 1012.4
20260507130020 65 77 7.8 9.6 0.00 0.18 0.02 72 1012.4
20260507124521 65 78 7.0 9.6 0.00 0.18 0.02 71 1012.4
20260507123020 66 63 6.1 8.7 0.00 0.18 0.02 72 1012.5
20260507121517 65 51 6.1 8.7 0.00 0.18 0.02 71 1012.5
20260507120016 66 64 6.1 8.7 0.00 0.18 0.02 70 1012.6
20260507114516 66 73 7.0 7.8 0.00 0.18 0.02 70 1012.6
20260507113033 66 55 6.1 7.8 0.00 0.18 0.02 69 1012.6
20260507111513 65 65 6.1 7.8 0.00 0.18 0.02 70 1012.7
20260507110015 66 62 4.3 7.8 0.00 0.18 0.02 70 1012.8
20260507104513 65 60 5.2 7.8 0.00 0.18 0.02 64 1012.9
20260507103010 65 53 5.2 6.1 0.00 0.18 0.02 68 1013.0
20260507101514 65 47 7.0 7.8 0.00 0.18 0.02 68 1013.1
20260507100006 65 56 5.2 6.1 0.00 0.18 0.02 69 1013.2
20260507094506 65 54 5.2 7.8 0.00 0.18 0.02 65 1013.2
20260507093003 65 58 3.5 5.2 0.00 0.18 0.02 64 1013.1
20260507091635 65 87 4.3 7.0 0.00 0.18 0.02 65 1013.2
20260507090057 65 79 3.5 6.1 0.00 0.18 0.02 63 1013.0
20260507084609 65 49 2.6 4.3 0.00 0.18 0.02 63 1012.8
20260507083052 65 342 0.0 4.3 0.00 0.19 0.02 61 1012.8
20260507081532 65 256 3.5 6.1 0.00 0.19 0.02 61 1012.7
20260507080016 65 328 2.6 4.3 0.00 0.19 0.02 58 1012.6
20260507074550 65 239 1.7 4.3 0.00 0.19 0.02 56 1012.6
20260507073044 64 239 0.9 3.5 0.00 0.19 0.02 60 1012.6
20260507071511 63 238 2.6 6.1 0.00 0.19 0.02 63 1012.6
20260507070013 63 233 3.5 5.2 0.00 0.19 0.02 65 1012.5
20260507064539 62 252 5.2 7.8 0.00 0.19 0.02 66 1012.4
20260507063041 62 248 5.2 8.7 0.00 0.19 0.02 65 1012.3
20260507061536 62 252 5.2 9.6 0.00 0.19 0.02 64 1012.2
20260507060033 62 245 6.1 9.6 0.00 0.19 0.02 63 1012.1
20260507054531 62 255 5.2 9.6 0.00 0.19 0.02 63 1012.1
20260507053030 61 222 3.5 7.0 0.00 0.23 0.02 66 1012.0
20260507051527 60 222 2.6 4.3 0.00 0.23 0.02 68 1011.8
20260507050029 60 221 1.7 2.6 0.00 0.23 0.02 68 1011.7
20260507044522 60 220 2.6 4.3 0.00 0.23 0.02 67 1011.3
20260507043026 60 214 2.6 7.0 0.00 0.32 0.02 67 1011.2
20260507041555 60 227 3.5 7.0 0.00 0.32 0.02 67 1011.1
20260507040050 60 211 3.5 5.2 0.00 0.32 0.02 68 1011.0
20260507034547 60 216 3.5 6.1 0.00 0.32 0.02 67 1011.0
20260507033045 60 227 4.3 7.0 0.00 0.32 0.02 67 1010.9
20260507031547 61 235 4.3 8.7 0.00 0.32 0.02 65 1010.8
20260507030043 61 231 2.6 7.8 0.00 0.32 0.02 64 1010.8
20260507024515 61 211 2.6 7.0 0.00 0.32 0.02 64 1010.7
20260507023012 62 217 5.2 9.6 0.00 0.32 0.02 63 1010.8
20260507021510 62 203 5.2 12.2 0.00 0.32 0.02 62 1010.9
20260507020009 62 218 5.2 12.2 0.00 0.32 0.02 63 1010.9
20260507014507 62 214 6.1 8.7 0.00 0.32 0.02 63 1010.8
20260507013006 62 226 5.2 8.7 0.00 0.34 0.02 66 1010.7
20260507011544 62 222 7.0 10.4 0.00 0.34 0.02 66 1010.5
20260507010037 62 216 5.2 12.2 0.00 0.34 0.02 65 1010.4
20260507004532 62 211 7.0 12.2 0.00 0.34 0.02 66 1010.5
20260507003031 62 220 7.8 12.2 0.00 0.34 0.02 66 1010.4
20260507001602 62 195 6.1 12.2 0.01 0.34 0.02 66 1010.5
20260507000035 62 220 7.8 14.8 0.02 0.34 0.02 67 1010.5
20260506234525 62 200 9.6 14.8 0.02 0.34 0.02 68 1010.8
20260506233023 61 195 7.8 12.2 0.02 0.34 0.02 72 1010.9
20260506231520 61 233 6.1 12.2 0.01 0.33 0.02 72 1011.1
20260506230017 62 224 7.0 10.4 0.00 0.32 0.01 70 1011.0
20260506224516 62 225 6.1 12.2 0.00 0.32 0.01 70 1011.1
20260506223012 62 223 5.2 13.9 0.01 0.32 0.01 70 1011.0
20260506221511 62 226 6.1 10.4 0.01 0.32 0.01 72 1011.0
20260506220010 63 237 6.1 9.6 0.01 0.32 0.01 71 1010.9
20260506214506 62 226 7.8 10.4 0.01 0.32 0.01 71 1010.9
20260506213002 63 226 12.2 17.4 0.00 0.31 0.00 66 1010.8
20260506211559 65 226 6.1 12.2 0.00 0.31 0.00 66 1010.7
20260506210100 65 218 6.1 15.6 0.00 0.31 0.00 65 1010.5
20260506204525 64 213 12.2 16.5 0.00 0.31 0.00 67 1010.5